Miscellaneous Local Product
Issued by NWS North Platte, NE

Home | Current Version | Previous Version | Graphics & Text | Print | Product List | Glossary On
Versions: 1 2 3 4 5 6 7 8 9 10 11 12 13 14 15 16 17 18 19 20 21 22 23 24 25 26 27 28 29 30 31 32 33 34 35 36 37 38 39 40 41 42 43 44 45 46 47 48 49 50
000
AXUS43 KLBF 160410
MISLBF


WESTERN AND NORTH CENTRAL NEBRASKA HOURLY WEATHER ROUNDUP
NATIONAL WEATHER SERVICE NORTH PLATTE NE
1100 PM CDT MON SEP 15 2014

***STATIONS NOT REPORTING VARIABLES SUCH AS SKY/WEATHER OR
PRESSURE ARE PROVIDED BY THE NEBRASKA DEPARTMENT OF
ROADS...RAWS...AND APRS NETWORKS...AND ARE NOT UNDER
NATIONAL WEATHER SERVICE QUALITY CONTROL***

...OBSERVATIONS IN AND NEAR THE EASTERN PANHANDLE OF NEBRASKA...

CITY           SKY/WX    TMP DP  RH WIND       PRES   REMARKS
PINE RIDGE     CLEAR     60  42  51 S17G25    30.13F
CHADRON        CLEAR     59  45  59 SW7       30.12F
ALLIANCE       CLEAR     50  44  80 S10       30.19F
SIDNEY         CLEAR     54  46  74 S12       30.23F
WHITECLAY        N/A     54  41  62 E10         N/A
RUSHVILLE        N/A     51  39  62 S15         N/A
CRESCENT LAKE    N/A     54  46  75 S7          N/A
LISCO            N/A     56  44  64 E9          N/A
BIG SPRINGS      N/A     56  48  74 S5          N/A
$$

...OBSERVATIONS IN NORTH CENTRAL NEBRASKA...

CITY           SKY/WX    TMP DP  RH WIND       PRES   REMARKS
VALENTINE      CLEAR     51  39  63 S7        30.20F
THEDFORD       CLEAR     52  42  68 S10       30.23F
AINSWORTH      CLEAR     45  38  79 S7        30.22S
O`NEILL        CLEAR     49  42  75 SE5       30.25S
ORD            CLEAR     44  41  89 CALM      30.25S
BROKEN BOW     CLEAR     42  40  92 CALM      30.25S
SPRINGVIEW       N/A     47  42  83 CALM        N/A
ROSE             N/A     46  41  81 E7          N/A
NEWPORT          N/A     48  39  72 SE7         N/A
COMSTOCK         N/A     49  43  80 S7          N/A
CHAMBERS         N/A     45  38  76 CALM        N/A
$$

...OBSERVATIONS IN SOUTHWEST NEBRASKA AND FAR NORTHEAST COLORADO...

CITY           SKY/WX    TMP DP  RH WIND       PRES   REMARKS
WRAY           FAIR      54  47  77 SE8       30.26S
HOLYOKE        FAIR      54  48  82 S7        30.25S
IMPERIAL       CLEAR     50  44  80 SE8       30.25S
OGALLALA       CLEAR     54  47  79 S6        30.23S
NORTH PLATTE   CLEAR     46  42  86 E6        30.25R
MCCOOK         CLEAR     52  43  71 SE6       30.27R
LEXINGTON      CLEAR     48  45  88 S5        30.27R
PAXTON           N/A     50  45  83 CALM        N/A
SUTHERLAND       N/A     51  41  69 S8          N/A
BRADY            N/A     47  42  83 CALM        N/A
GOTHENBURG       N/A     52  43  71 CALM        N/A
CALLAWAY         N/A     45  42  89 SE5         N/A
$$

...SOME WEATHER OBSERVATIONS FROM AROUND THE REGION...

CITY           SKY/WX    TMP DP  RH WIND       PRES   REMARKS
DENVER         CLEAR     61  50  67 SW9       30.25R
LARAMIE        PTCLDY    51  42  71 S12       30.30S
CHEYENNE       PTCLDY    54  45  71 SW10      30.27F
SCOTTSBLUFF    PTCLDY    55  47  74 E10       30.17S
RAPID CITY     CLEAR     49  42  77 S6        30.11F
PIERRE         CLEAR     48  38  68 SE8       30.16F
WINNER         FAIR      50  39  66 SE12      30.20F
SIOUX FALLS    CLEAR     46  43  89 CALM      30.24S
OMAHA          CLEAR     50  46  86 CALM      30.27S
GRAND ISLAND   CLEAR     48  43  82 E6        30.27S
KANSAS CITY    CLEAR     53  50  89 NE7       30.24R
WICHITA        MOCLDY    67  56  67 NE14      30.21R
HAYS           CLEAR     54  45  71 NE9       30.27R
LIBERAL        CLOUDY    63  54  72 E6        30.29S
GOODLAND       CLEAR     53  50  89 S7        30.29S
$$



USA.gov is the U.S. government's official web portal to all federal, state and local government web resources and services.